PLEIADES 1A

Last updated on Wed Dec 17 2025 00:02:33 GMT+0000 (Coordinated Universal Time)

1 38012U 11076F 25350.37247866 .00000274 00000+0 68659-4 0 9997 2 38012 98.1821 63.0848 0001207 72.7332 355.8515 14.58565041745342
UTC large
Height (km)
Speed (km/s)
/
Latitude / Longitude
Inclination (degrees)
Orbital Period (minutes)
Azimuth
Elevation
Range (km)
Doppler Factor

Next 0 passes for location: London (51.5072 / 0.1276)

Sorry there are no passes over London.